Regional Weather Roundup
Issued by NWS Northern Indiana

Home | Current Version | Previous Version | Text Only | Print | Product List | Glossary On
Versions: 1 2 3 4 5 6 7 8 9 10 11 12 13 14 15 16 17 18 19 20 21 22 23 24 25 26 27 28 29 30 31 32 33 34 35 36 37 38 39 40 41 42 43 44 45 46 47 48 49 50
629
ASUS43 KIWX 112200
RWRIWX

KIWX WEATHER ROUNDUP
NATIONAL WEATHER SERVICE NORTHERN INDIANA
500 PM EST THU FEB 11 2016

NOTE: "FAIR" INDICATES FEW OR NO CLOUDS BELOW 12,000 FEET WITH NO
SIGNIFICANT WEATHER AND/OR OBSTRUCTIONS TO VISIBILITY.

* THESE STATIONS ARE NOT UNDER NWS QUALITY CONTROL. THEY ALSO MAY NOT
  REPORT WEATHER SUCH AS PRECIPITATION OR FOG.

INZ001>027-112300-
NORTHERN INDIANA

CITY           SKY/WX    TMP DP  RH WIND       PRES   REMARKS
GARY*          SUNNY     23   5  46 CALM      30.30S
SOUTH BEND     PTSUNNY   19  10  68 W10       30.27S WCI   7
ELKHART*       CLOUDY    19   7  58 MISG      30.27R
GOSHEN         MOSUNNY   17   7  64 W10       30.25S WCI   5
MONTICELLO*    SUNNY     22  -2  34 CALM      30.28F
ANGOLA*        CLOUDY    19   9  63 NW5       30.22S WCI  13
FORT WAYNE     CLOUDY    22  10  60 W12       30.27R WCI  10

$$
INZ028>050-112300-
CENTRAL INDIANA

CITY           SKY/WX    TMP DP  RH WIND       PRES   REMARKS
LAFAYETTE      SUNNY     23   1  38 NW7       30.30S WCI  15
KOKOMO*        MOSUNNY   21   7  53 W7        30.28R WCI  13
MUNCIE*        MOSUNNY   20   7  57 NW7       30.28R WCI  11
INDIANAPOLIS   MOSUNNY   26   7  44 W8        30.27S WCI  18

$$
MIZ043>046-050>051-056>058-064>065-071>073-077>080-112300-
SOUTHWEST LOWER MICHIGAN

CITY           SKY/WX    TMP DP  RH WIND       PRES   REMARKS
BATTLE CREEK   PTSUNNY   19   9  65 W7        30.22R WCI  10
BENTON HARBOR  CLOUDY    20   7  57 VRB6      30.27R WCI  12
COLDWATER*     MOSUNNY   21   7  55 W9        30.22S WCI  10
HILLSDALE*     MOSUNNY   20   8  60 W7        30.20S WCI  11
HOLLAND        CLOUDY    20   8  60 NW7       30.25R WCI  11
GRAND RAPIDS   PTSUNNY   21   6  52 W12       30.22R WCI   9
KALAMAZOO      FLURRIES  20  10  65 W12       30.23S WCI   8
STURGIS*       CLOUDY    20   9  62 NW7       30.23R WCI  11
THREE RIVERS*  PTSUNNY   20  10  64 W9        30.25R WCI   9

$$
OHZ001>008-015>018-024>025-112300-
NORTHWEST OHIO

CITY           SKY/WX    TMP DP  RH WIND       PRES   REMARKS
DEFIANCE       CLOUDY    21   7  54 NW8       30.27R WCI  11
FINDLAY        CLOUDY    21   4  47 NW10      30.25R WCI  10
TOLEDO EXPRESS CLEAR     20   4  50 W9        30.25R WCI   9
TOLEDO METCALF MOCLDY    22   5  48 W14       30.26R WCI   9
LIMA           CLOUDY    20   7  57 NW8       30.25R WCI  10

$$
AND FOR LAKE MICHIGAN COASTAL AND OPEN LAKE BUOY OBSERVATIONS

STATION/POSITION TEMP    WIND        PRES    VSBY  WAVE
                 AIR SEA DIR/SP/G                  HT/PER
                 (F)     (DEG/KT/KT) (MB)    (MI)  (FT/S)
CALUMET HARBOR    19      50/  6/  8 1025.0F
MICHIGAN CITY     19     280/  8/  9   N/A
BURNS HARBOR      18     350/  4/  8 1026.4S
SAINT JOSEPH      21     260/  8/ 13 1024.7F

$$
&&




USA.gov is the U.S. government's official web portal to all federal, state and local government web resources and services.